, MO

(GMT )
Kansas City

Weather History for KMKC - November, 2011

Change the Weather History Date:

Wednesday, November 16, 2011

  Actual Average Record
Temperature  
Mean Temperature 40 °F -  
Max Temperature 45 °F 53 °F 75 °F (2016)
Min Temperature 33 °F 36 °F 18 °F (2014)
Degree Days  
Heating Degree Days 26    
Moisture  
Dew Point 17 °F    
Average Humidity 42    
Maximum Humidity 70    
Minimum Humidity 23    
Precipitation  
Precipitation 0.00 in - - ()
Sea Level Pressure  
Sea Level Pressure 30.23 in    
Wind  
Wind Speed 7 mph (NNW)    
Max Wind Speed 13 mph    
Max Gust Speed 18 mph    
Visibility 10 miles    
Events      
Averages and records for this station are not official NWS values.
T = Trace of Precipitation, MM = Missing Value Source: NWS Daily Summary

Daily Weather History Graph

Daily Weather History Graph

Search for Another Location

Airport or City:

Trip Planner

Search our weather history database for the weather conditions in past years. The results will help you decide how hot, cold, wet, or windy it might be!

Date:

Astronomy

Nov. 16, 2011 Rise Set
Actual Time 7:02 AM CST 5:03 PM CST
Civil Twilight 6:33 AM CST 5:32 PM CST
Nautical Twilight 6:01 AM CST 6:04 PM CST
Astronomical Twilight 5:29 AM CST 6:36 PM CST
Moon 10:17 PM CST (11/16) 11:39 AM CST (11/16)
Length of Visible Light 10h 58m
Length of Day
10h 01m
Waning Gibbous, 70% of the Moon is Illuminated
Nov 16
Waning Gibbous
Nov 18
Last Quarter
Nov 25
New
Dec 2
First Quarter
Dec 10
Full

Hourly Weather History & Observations

Time (CST) Temp. Windchill Dew Point Humidity Pressure Visibility Wind Dir Wind Speed Gust Speed Precip Events Conditions
12:54 AM 41.0 °F 35.2 °F 23.0 °F 49% 30.04 in 10.0 mi NNE 9.2 mph - N/A   Clear
1:54 AM 39.0 °F 33.4 °F 21.0 °F 49% 30.06 in 10.0 mi NNE 8.1 mph - N/A   Clear
2:54 AM 37.9 °F 32.1 °F 19.9 °F 48% 30.08 in 10.0 mi NNE 8.1 mph - N/A   Clear
3:54 AM 36.0 °F 31.1 °F 19.0 °F 50% 30.08 in 10.0 mi NNE 5.8 mph - N/A   Clear
4:54 AM 35.1 °F 30.1 °F 19.0 °F 52% 30.09 in 10.0 mi NE 5.8 mph - N/A   Clear
5:54 AM 34.0 °F 29.8 °F 19.0 °F 54% 30.11 in 10.0 mi NE 4.6 mph - N/A   Clear
6:54 AM 34.0 °F 28.8 °F 19.0 °F 54% 30.15 in 10.0 mi North 5.8 mph - N/A   Clear
7:54 AM 36.0 °F 31.1 °F 18.0 °F 48% 30.18 in 10.0 mi North 5.8 mph - N/A   Mostly Cloudy
8:54 AM 39.0 °F 34.8 °F 18.0 °F 43% 30.22 in 10.0 mi North 5.8 mph - N/A   Overcast
9:54 AM 39.9 °F 35.1 °F 17.1 °F 40% 30.25 in 10.0 mi North 6.9 mph - N/A   Mostly Cloudy
10:54 AM 42.1 °F 36.1 °F 16.0 °F 35% 30.27 in 10.0 mi North 10.4 mph - N/A   Mostly Cloudy
11:54 AM 44.1 °F 38.6 °F 14.0 °F 30% 30.26 in 10.0 mi North 10.4 mph 17.3 mph N/A   Partly Cloudy
12:54 PM 44.1 °F 37.7 °F 12.0 °F 27% 30.25 in 10.0 mi North 12.7 mph 18.4 mph N/A   Mostly Cloudy
1:54 PM 45.0 °F 41.2 °F 12.0 °F 26% 30.25 in 10.0 mi NNE 6.9 mph - N/A   Clear
2:54 PM 45.0 °F 42.6 °F 10.9 °F 25% 30.25 in 10.0 mi NNW 4.6 mph - N/A   Clear
3:54 PM 45.0 °F 41.8 °F 9.0 °F 23% 30.27 in 10.0 mi NNW 5.8 mph - N/A   Scattered Clouds
4:54 PM 42.8 °F 38.6 °F 12.2 °F 29% 30.27 in 10.0 mi NW 6.9 mph - N/A   Overcast
5:54 PM 41.0 °F 37.1 °F 15.1 °F 35% 30.30 in 10.0 mi WNW 5.8 mph - N/A   Mostly Cloudy
6:54 PM 41.0 °F 37.1 °F 16.0 °F 36% 30.32 in 10.0 mi NW 5.8 mph - N/A   Overcast
7:54 PM 39.9 °F 37.8 °F 15.1 °F 36% 30.33 in 10.0 mi WNW 3.5 mph - N/A   Overcast
8:54 PM 37.9 °F 35.5 °F 16.0 °F 41% 30.35 in 10.0 mi West 3.5 mph - N/A   Mostly Cloudy
9:54 PM 37.0 °F 32.4 °F 15.1 °F 41% 30.36 in 10.0 mi WSW 5.8 mph - N/A   Clear
10:54 PM 35.1 °F 28.6 °F 21.9 °F 59% 30.36 in 10.0 mi West 8.1 mph - N/A   Clear
11:54 PM 33.8 °F 30.8 °F 24.8 °F 70% 30.35 in 10.0 mi West 3.5 mph - N/A   Clear